This is the latest recevied weather packets stored in our database for station/object WA4TPR. If no packets are shown the sender has not sent any weather packets the latest 10 day(s).
| Time | Temp. | Humidity | Pressure | Rain* | Wind** | Luminosity | Snow |
|---|---|---|---|---|---|---|---|
| 1777914015 | 26.67° C | 69% | 1020 hPa | 0 mm | - | 412 W/m² | - |
| 1777913710 | 27.22° C | 69% | 1020 hPa | 0 mm | - | 355 W/m² | - |
| 1777913407 | 27.22° C | 67% | 1020.2 hPa | 0 mm | - | 385 W/m² | - |
| 1777913104 | 27.78° C | 65% | 1020.3 hPa | 0 mm | - | 1041 W/m² | - |
| 1777912800 | 27.22° C | 65% | 1020.1 hPa | 0 mm | - | 920 W/m² | - |
| 1777912495 | 27.22° C | 63% | 1020.2 hPa | 0 mm | - | 868 W/m² | - |
| 1777912193 | 26.67° C | 65% | 1020.2 hPa | 0 mm | - | 950 W/m² | - |
| 1777911889 | 26.11° C | 67% | 1020.5 hPa | 0 mm | - | 1013 W/m² | - |
| 1777911585 | 26.67° C | 66% | 1020.3 hPa | 0 mm | - | 299 W/m² | - |
| 1777911281 | 26.11° C | 68% | 1020.5 hPa | 0 mm | - | 816 W/m² | - |
| 1777910979 | 26.11° C | 67% | 1020.4 hPa | 0 mm | - | 880 W/m² | - |
| 1777910677 | 26.11° C | 68% | 1020.6 hPa | 0 mm | - | 481 W/m² | - |
| 1777910373 | 26.11° C | 70% | 1020.6 hPa | 0 mm | - | 294 W/m² | - |
| 1777910069 | 26.67° C | 69% | 1020.6 hPa | 0 mm | - | 391 W/m² | - |
| 1777909767 | 26.11° C | 69% | 1020.6 hPa | 0 mm | - | 651 W/m² | - |
| 1777909463 | 26.11° C | 69% | 1020.5 hPa | 0 mm | - | 584 W/m² | - |
| 1777909161 | 26.11° C | 69% | 1020.6 hPa | 0 mm | - | 789 W/m² | - |
| 1777908859 | 26.11° C | 68% | 1020.7 hPa | 0 mm | - | 736 W/m² | - |
| 1777908556 | 25.56° C | 68% | 1020.4 hPa | 0 mm | - | 698 W/m² | - |
| 1777908253 | 26.11° C | 69% | 1020.7 hPa | 0 mm | - | 620 W/m² | - |
| 1777907949 | 26.11° C | 69% | 1020.7 hPa | 0 mm | - | 699 W/m² | - |
| 1777907644 | 25.56° C | 68% | 1020.7 hPa | 0 mm | - | 440 W/m² | - |
| 1777907340 | 25.56° C | 70% | 1020.6 hPa | 0 mm | - | 487 W/m² | - |
| 1777907037 | 25° C | 70% | 1020.7 hPa | 0 mm | - | 443 W/m² | - |
| 1777906735 | 25.56° C | 72% | 1020.7 hPa | 0 mm | - | 624 W/m² | - |
* Rain latest hour (hover to see other rain measurements)
** Current wind speed in m/s (hover to see current wind gust speed)